Date,TemperatureHighF,TemperatureAvgF,TemperatureLowF,DewpointHighF,DewpointAvgF,DewpointLowF,HumidityHigh,HumidityAvg,HumidityLow,PressureMaxIn,PressureMinIn,WindSpeedMaxMPH,WindSpeedAvgMPH,GustSpeedMaxMPH,PrecipitationSumIn
2013-1-1,14,0,-8,-100,-100,-100,0,0,100,0.00,40.00,0,-999,0,0.00
2013-1-2,23,13,1,-100,-100,-100,0,0,100,0.00,40.00,0,-999,0,0.00
2013-1-3,21,9,5,-100,-100,-100,0,0,100,0.00,40.00,0,-999,0,0.00
2013-1-4,25,18,10,-100,-100,-100,0,0,100,0.00,40.00,0,-999,0,0.00
2013-1-5,27,17,9,-100,-100,-100,0,0,100,0.00,40.00,0,-999,0,0.00
2013-1-6,18,11,7,-100,-100,-100,0,0,100,0.00,40.00,0,-999,0,0.00
2013-1-7,32,24,12,-100,-100,-100,0,0,100,0.00,40.00,0,-999,0,0.00
2013-1-8,36,26,9,-100,-100,-100,0,0,100,0.00,40.00,0,-999,0,0.00
2013-1-9,34,29,25,-100,-100,-100,0,0,100,0.00,40.00,0,-999,0,0.00
2013-1-10,34,28,23,-100,-100,-100,0,0,100,0.00,40.00,0,-999,0,0.00
2013-1-11,37,34,32,-100,-100,-100,0,0,100,0.00,40.00,0,-999,0,0.00
2013-1-12,36,20,9,-100,-100,-100,0,0,100,0.00,40.00,0,-999,0,0.00
2013-1-13,9,4,1,-100,-100,-100,0,0,100,0.00,40.00,0,-999,0,0.00
2013-1-14,21,12,5,-100,-100,-100,0,0,100,0.00,40.00,0,-999,0,0.00
2013-1-15,28,18,10,-100,-100,-100,0,0,100,0.00,40.00,0,-999,0,0.00
2013-1-16,37,27,19,-100,-100,-100,0,0,100,0.00,40.00,0,-999,0,0.00
2013-1-17,23,15,7,-100,-100,-100,0,0,100,0.00,40.00,0,-999,0,0.00
2013-1-18,43,32,21,-100,-100,-100,0,0,100,0.00,40.00,0,-999,0,0.00
2013-1-19,39,30,12,-100,-100,-100,0,0,100,0.00,40.00,0,-999,0,0.00
2013-1-20,9,4,1,-100,-100,-100,0,0,100,0.00,40.00,0,-999,0,0.00
2013-1-21,1,-5,-9,-100,-100,-100,0,0,100,0.00,40.00,0,-999,0,0.00
2013-1-22,9,1,-8,-100,-100,-100,0,0,100,0.00,40.00,0,-999,0,0.00
2013-1-23,18,11,1,-100,-100,-100,0,0,100,0.00,40.00,0,-999,0,0.00
2013-1-24,12,2,-4,-100,-100,-100,0,0,100,0.00,40.00,0,-999,0,0.00
2013-1-25,23,12,3,-100,-100,-100,0,0,100,0.00,40.00,0,-999,0,0.00
2013-1-26,25,15,1,-100,-100,-100,0,0,100,0.00,40.00,0,-999,0,0.00
2013-1-27,30,28,25,-100,-100,-100,0,0,100,0.00,40.00,0,-999,0,0.00
2013-1-28,32,30,28,-100,-100,-100,0,0,100,0.00,40.00,0,-999,0,0.00
2013-1-29,34,31,27,-100,-100,-100,0,0,100,0.00,40.00,0,-999,0,0.00
2013-1-30,27,18,9,-100,-100,-100,0,0,100,0.00,40.00,0,-999,0,0.00
2013-1-31,-2,-5,-9,-100,-100,-100,0,0,100,0.00,40.00,0,-999,0,0.00
2013-2-1,9,-2,-11,-100,-100,-100,0,0,100,0.00,40.00,0,-999,0,0.00
2013-2-2,16,10,5,-100,-100,-100,0,0,100,0.00,40.00,0,-999,0,0.00
2013-2-3,19,14,9,-100,-100,-100,0,0,100,0.00,40.00,0,-999,0,0.00
2013-2-4,18,14,10,-100,-100,-100,0,0,100,0.00,40.00,0,-999,0,0.00
2013-2-5,32,23,18,-100,-100,-100,0,0,100,0.00,40.00,0,-999,0,0.00
2013-2-6,34,27,14,-100,-100,-100,0,0,100,0.00,40.00,0,-999,0,0.00
2013-2-7,34,26,23,-100,-100,-100,0,0,100,0.00,40.00,0,-999,0,0.00
2013-2-8,27,24,23,-100,-100,-100,0,0,100,0.00,40.00,0,-999,0,0.00
2013-2-9,28,26,23,-100,-100,-100,0,0,100,0.00,40.00,0,-999,0,0.00
2013-2-10,36,32,28,-100,-100,-100,0,0,100,0.00,40.00,0,-999,0,0.00
2013-2-11,27,22,19,-100,-100,-100,0,0,100,0.00,40.00,0,-999,0,0.00
2013-2-12,34,26,18,-100,-100,-100,0,0,100,0.00,40.00,0,-999,0,0.00
2013-2-13,39,30,23,-100,-100,-100,0,0,100,0.00,40.00,0,-999,0,0.00
2013-2-14,34,28,18,-100,-100,-100,0,0,100,0.00,40.00,0,-999,0,0.00
2013-2-15,18,14,9,-100,-100,-100,0,0,100,0.00,40.00,0,-999,0,0.00
2013-2-16,25,15,9,-100,-100,-100,0,0,100,0.00,40.00,0,-999,0,0.00
2013-2-17,32,23,14,-100,-100,-100,0,0,100,0.00,40.00,0,-999,0,0.00
2013-2-18,32,19,3,-100,-100,-100,0,0,100,0.00,40.00,0,-999,0,0.00
2013-2-19,3,-1,-4,-100,-100,-100,0,0,100,0.00,40.00,0,-999,0,0.00
2013-2-20,18,4,-6,-100,-100,-100,0,0,100,0.00,40.00,0,-999,0,0.00
2013-2-21,21,16,9,-100,-100,-100,0,0,100,0.00,40.00,0,-999,0,0.00
2013-2-22,25,21,18,-100,-100,-100,0,0,100,0.00,40.00,0,-999,0,0.00
2013-2-23,23,16,9,-100,-100,-100,0,0,100,0.00,40.00,0,-999,0,0.00
2013-2-24,28,22,1,-100,-100,-100,0,0,100,0.00,40.00,0,-999,0,0.00
2013-2-25,32,28,23,-100,-100,-100,0,0,100,0.00,40.00,0,-999,0,0.00
2013-2-26,28,25,21,-100,-100,-100,0,0,100,0.00,40.00,0,-999,0,0.00
2013-2-27,30,27,23,-100,-100,-100,0,0,100,0.00,40.00,0,-999,0,0.00
2013-2-28,28,24,19,-100,-100,-100,0,0,100,0.00,40.00,0,-999,0,0.00
2013-3-1,23,22,18,-100,-100,-100,0,0,100,0.00,40.00,0,-999,0,0.00
2013-3-2,23,16,9,-100,-100,-100,0,0,100,0.00,40.00,0,-999,0,0.00
2013-3-3,28,22,18,-100,-100,-100,0,0,100,0.00,40.00,0,-999,0,0.00
2013-3-4,27,24,21,-100,-100,-100,0,0,100,0.00,40.00,0,-999,0,0.00
2013-3-5,27,25,23,-100,-100,-100,0,0,100,0.00,40.00,0,-999,0,0.00
2013-3-6,23,19,7,-100,-100,-100,0,0,100,0.00,40.00,0,-999,0,0.00
2013-3-7,25,17,1,-100,-100,-100,0,0,100,0.00,40.00,0,-999,0,0.00
2013-3-8,34,27,14,-100,-100,-100,0,0,100,0.00,40.00,0,-999,0,0.00
2013-3-9,34,32,30,-100,-100,-100,0,0,100,0.00,40.00,0,-999,0,0.00
2013-3-10,32,30,28,-100,-100,-100,0,0,100,0.00,40.00,0,-999,0,0.00
2013-3-11,27,24,19,-100,-100,-100,0,0,100,0.00,40.00,0,-999,0,0.00
2013-3-12,23,21,18,-100,-100,-100,0,0,100,0.00,40.00,0,-999,0,0.00
2013-3-13,25,19,10,-100,-100,-100,0,0,100,0.00,40.00,0,-999,0,0.00
2013-3-14,41,29,18,-100,-100,-100,0,0,100,0.00,40.00,0,-999,0,0.00
2013-3-15,34,31,27,-100,-100,-100,0,0,100,0.00,40.00,0,-999,0,0.00
2013-3-16,30,25,18,-100,-100,-100,0,0,100,0.00,40.00,0,-999,0,0.00
2013-3-17,27,17,10,-100,-100,-100,0,0,100,0.00,40.00,0,-999,0,0.00
2013-3-18,28,22,12,-100,-100,-100,0,0,100,0.00,40.00,0,-999,0,0.00
2013-3-19,21,14,7,-100,-100,-100,0,0,100,0.00,40.00,0,-999,0,0.00
2013-3-20,16,11,5,-100,-100,-100,0,0,100,0.00,40.00,0,-999,0,0.00
2013-3-21,25,14,3,-100,-100,-100,0,0,100,0.00,40.00,0,-999,0,0.00
2013-3-22,30,20,12,-100,-100,-100,0,0,100,0.00,40.00,0,-999,0,0.00
2013-4-11,34,33,30,-100,-100,-100,0,0,100,0.00,40.00,0,-999,0,0.00
2013-4-12,30,29,27,-100,-100,-100,0,0,100,0.00,40.00,0,-999,0,0.00
2013-4-13,41,32,25,-100,-100,-100,0,0,100,0.00,40.00,0,-999,0,0.00
2013-4-14,48,36,30,-100,-100,-100,0,0,100,0.00,40.00,0,-999,0,0.00
2013-4-15,39,36,32,-100,-100,-100,0,0,100,0.00,40.00,0,-999,0,0.00
2013-4-16,45,36,28,-100,-100,-100,0,0,100,0.00,40.00,0,-999,0,0.00
2013-4-17,36,35,32,-100,-100,-100,0,0,100,0.00,40.00,0,-999,0,0.00
2013-4-18,36,32,28,-100,-100,-100,0,0,100,0.00,40.00,0,-999,0,0.00
2013-4-19,32,29,27,-100,-100,-100,0,0,100,0.00,40.00,0,-999,0,0.00
2013-4-20,43,33,23,-100,-100,-100,0,0,100,0.00,40.00,0,-999,0,0.00
2013-4-21,55,40,32,-100,-100,-100,0,0,100,0.00,40.00,0,-999,0,0.00
2013-4-22,45,39,30,-100,-100,-100,0,0,100,0.00,40.00,0,-999,0,0.00
2013-4-23,36,30,27,-100,-100,-100,0,0,100,0.00,40.00,0,-999,0,0.00
2013-4-24,48,35,25,-100,-100,-100,0,0,100,0.00,40.00,0,-999,0,0.00
2013-4-25,55,37,27,-100,-100,-100,0,0,100,0.00,40.00,0,-999,0,0.00
2013-4-26,72,59,41,-100,-100,-100,0,0,100,0.00,40.00,0,-999,0,0.00
2013-4-27,72,56,43,-100,-100,-100,0,0,100,0.00,40.00,0,-999,0,0.00
2013-4-28,77,58,45,-100,-100,-100,0,0,100,0.00,40.00,0,-999,0,0.00
2013-4-29,73,64,54,-100,-100,-100,0,0,100,0.00,40.00,0,-999,0,0.00
2013-4-30,72,62,50,-100,-100,-100,0,0,100,0.00,40.00,0,-999,0,0.00
2013-5-1,50,40,30,-100,-100,-100,0,0,100,0.00,40.00,0,-999,0,0.00
2013-5-2,34,31,30,-100,-100,-100,0,0,100,0.00,40.00,0,-999,0,0.00
2013-5-3,32,30,28,-100,-100,-100,0,0,100,0.00,40.00,0,-999,0,0.00
2013-5-4,39,35,30,-100,-100,-100,0,0,100,0.00,40.00,0,-999,0,0.00
2013-5-5,57,46,36,-100,-100,-100,0,0,100,0.00,40.00,0,-999,0,0.00
2013-5-6,68,56,43,-100,-100,-100,0,0,100,0.00,40.00,0,-999,0,0.00
2013-5-7,77,62,50,-100,-100,-100,0,0,100,0.00,40.00,0,-999,0,0.00
2013-5-8,77,63,52,-100,-100,-100,0,0,100,0.00,40.00,0,-999,0,0.00
2013-5-9,57,53,45,-100,-100,-100,0,0,100,0.00,40.00,0,-999,0,0.00
2013-5-10,63,50,41,-100,-100,-100,0,0,100,0.00,40.00,0,-999,0,0.00
2013-5-11,52,46,41,-100,-100,-100,0,0,100,0.00,40.00,0,-999,0,0.00
2013-5-12,57,44,30,-100,-100,-100,0,0,100,0.00,40.00,0,-999,0,0.00
2013-5-13,70,57,39,-100,-100,-100,0,0,100,0.00,40.00,0,-999,0,0.00
2013-5-14,99,80,52,-100,-100,-100,0,0,100,0.00,40.00,0,-999,0,0.00
2013-5-15,73,67,55,-100,-100,-100,0,0,100,0.00,40.00,0,-999,0,0.00
2013-5-16,86,74,55,-100,-100,-100,0,0,100,0.00,40.00,0,-999,0,0.00
2013-5-17,68,59,52,-100,-100,-100,0,0,100,0.00,40.00,0,-999,0,0.00
2013-5-18,81,67,57,-100,-100,-100,0,0,100,0.00,40.00,0,-999,0,0.00
2013-5-19,75,70,63,-100,-100,-100,0,0,100,0.00,40.00,0,-999,0,0.00
2013-5-20,73,65,59,-100,-100,-100,0,0,100,0.00,40.00,0,-999,0,0.00
2013-5-21,61,60,57,-100,-100,-100,0,0,100,0.00,40.00,0,-999,0,0.00
2013-5-22,57,54,50,-100,-100,-100,0,0,100,0.00,40.00,0,-999,0,0.00
2013-5-23,59,51,46,-100,-100,-100,0,0,100,0.00,40.00,0,-999,0,0.00
2013-5-24,68,56,45,-100,-100,-100,0,0,100,0.00,40.00,0,-999,0,0.00
2013-5-25,52,51,48,-100,-100,-100,0,0,100,0.00,40.00,0,-999,0,0.00
2013-5-26,52,48,45,-100,-100,-100,0,0,100,0.00,40.00,0,-999,0,0.00
2013-5-27,57,54,52,-100,-100,-100,0,0,100,0.00,40.00,0,-999,0,0.00
2013-5-28,70,60,52,-100,-100,-100,0,0,100,0.00,40.00,0,-999,0,0.00
2013-5-29,75,64,59,-100,-100,-100,0,0,100,0.00,40.00,0,-999,0,0.00
2013-5-30,72,67,63,-100,-100,-100,0,0,100,0.00,40.00,0,-999,0,0.00
2013-5-31,77,68,55,-100,-100,-100,0,0,100,0.00,40.00,0,-999,0,0.00
2013-6-1,68,61,52,-100,-100,-100,0,0,100,0.00,40.00,0,-999,0,0.00
2013-6-2,63,54,45,-100,-100,-100,0,0,100,0.00,40.00,0,-999,0,0.00
2013-6-3,70,60,48,-100,-100,-100,0,0,100,0.00,40.00,0,-999,0,0.00
2013-6-4,59,55,52,-100,-100,-100,0,0,100,0.00,40.00,0,-999,0,0.00
2013-6-5,68,58,52,-100,-100,-100,0,0,100,0.00,40.00,0,-999,0,0.00
2013-6-6,57,56,54,-100,-100,-100,0,0,100,0.00,40.00,0,-999,0,0.00
2013-6-7,63,57,50,-100,-100,-100,0,0,100,0.00,40.00,0,-999,0,0.00
2013-6-8,68,61,54,-100,-100,-100,0,0,100,0.00,40.00,0,-999,0,0.00
2013-6-9,68,62,57,-100,-100,-100,0,0,100,0.00,40.00,0,-999,0,0.00
2013-6-10,75,66,57,-100,-100,-100,0,0,100,0.00,40.00,0,-999,0,0.00
2013-6-11,90,72,59,-100,-100,-100,0,0,100,0.00,40.00,0,-999,0,0.00
2013-6-12,75,70,64,-100,-100,-100,0,0,100,0.00,40.00,0,-999,0,0.00
2013-6-13,77,67,59,-100,-100,-100,0,0,100,0.00,40.00,0,-999,0,0.00
2013-6-14,72,66,59,-100,-100,-100,0,0,100,0.00,40.00,0,-999,0,0.00
2013-6-15,75,68,63,-100,-100,-100,0,0,100,0.00,40.00,0,-999,0,0.00
2013-6-16,82,70,63,-100,-100,-100,0,0,100,0.00,40.00,0,-999,0,0.00
2013-6-17,82,73,63,-100,-100,-100,0,0,100,0.00,40.00,0,-999,0,0.00
2013-6-18,75,66,59,-100,-100,-100,0,0,100,0.00,40.00,0,-999,0,0.00
2013-6-19,84,72,59,-100,-100,-100,0,0,100,0.00,40.00,0,-999,0,0.00
2013-6-20,88,76,66,-100,-100,-100,0,0,100,0.00,40.00,0,-999,0,0.00
2013-6-22,88,79,68,-100,-100,-100,0,0,100,0.00,40.00,0,-999,0,0.00
2013-6-23,81,72,68,-100,-100,-100,0,0,100,0.00,40.00,0,-999,0,0.00
2013-6-24,70,68,66,-100,-100,-100,0,0,100,0.00,40.00,0,-999,0,0.00
2013-6-25,86,74,64,-100,-100,-100,0,0,100,0.00,40.00,0,-999,0,0.00
2013-6-26,84,78,72,-100,-100,-100,0,0,100,0.00,40.00,0,-999,0,0.00
2013-6-27,82,75,64,-100,-100,-100,0,0,100,0.00,40.00,0,-999,0,0.00
2013-6-28,75,69,64,-100,-100,-100,0,0,100,0.00,40.00,0,-999,0,0.00
2013-6-29,68,65,59,-100,-100,-100,0,0,100,0.00,40.00,0,-999,0,0.00
2013-6-30,73,62,55,-100,-100,-100,0,0,100,0.00,40.00,0,-999,0,0.00
2013-7-1,79,71,59,-100,-100,-100,0,0,100,0.00,40.00,0,-999,0,0.00
2013-7-2,79,70,63,-100,-100,-100,0,0,100,0.00,40.00,0,-999,0,0.00
2013-7-3,86,72,61,-100,-100,-100,0,0,100,0.00,40.00,0,-999,0,0.00
2013-7-4,86,74,61,-100,-100,-100,0,0,100,0.00,40.00,0,-999,0,0.00
2013-7-5,88,77,63,-100,-100,-100,0,0,100,0.00,40.00,0,-999,0,0.00
2013-7-6,90,74,64,-100,-100,-100,0,0,100,0.00,40.00,0,-999,0,0.00
2013-7-7,90,82,70,-100,-100,-100,0,0,100,0.00,40.00,0,-999,0,0.00
2013-7-8,91,75,68,-100,-100,-100,0,0,100,0.00,40.00,0,-999,0,0.00
2013-7-9,86,76,70,-100,-100,-100,0,0,100,0.00,40.00,0,-999,0,0.00
2013-7-10,79,70,63,-100,-100,-100,0,0,100,0.00,40.00,0,-999,0,0.00
2013-7-11,84,75,59,-100,-100,-100,0,0,100,0.00,40.00,0,-999,0,0.00
2013-7-12,84,71,63,-100,-100,-100,0,0,100,0.00,40.00,0,-999,0,0.00
2013-7-13,70,65,59,-100,-100,-100,0,0,100,0.00,40.00,0,-999,0,0.00
2013-7-14,84,75,63,-100,-100,-100,0,0,100,0.00,40.00,0,-999,0,0.00
2013-7-15,90,78,66,-100,-100,-100,0,0,100,0.00,40.00,0,-999,0,0.00
2013-7-16,93,84,72,-100,-100,-100,0,0,100,0.00,40.00,0,-999,0,0.00
2013-7-17,95,85,72,-100,-100,-100,0,0,100,0.00,40.00,0,-999,0,0.00
2013-7-18,91,83,73,-100,-100,-100,0,0,100,0.00,40.00,0,-999,0,0.00
2013-7-19,82,79,73,-100,-100,-100,0,0,100,0.00,40.00,0,-999,0,0.00
2013-7-20,81,72,63,-100,-100,-100,0,0,100,0.00,40.00,0,-999,0,0.00
2013-7-21,86,72,64,-100,-100,-100,0,0,100,0.00,40.00,0,-999,0,0.00
2013-7-22,86,74,64,-100,-100,-100,0,0,100,0.00,40.00,0,-999,0,0.00
2013-7-23,73,67,61,-100,-100,-100,0,0,100,0.00,40.00,0,-999,0,0.00
2013-7-24,75,67,55,-100,-100,-100,0,0,100,0.00,40.00,0,-999,0,0.00
2013-7-25,81,67,59,-100,-100,-100,0,0,100,0.00,40.00,0,-999,0,0.00
2013-7-26,68,64,61,-100,-100,-100,0,0,100,0.00,40.00,0,-999,0,0.00
2013-7-27,63,56,52,-100,-100,-100,0,0,100,0.00,40.00,0,-999,0,0.00
2013-7-28,70,59,50,-100,-100,-100,0,0,100,0.00,40.00,0,-999,0,0.00
2013-7-29,77,68,54,-100,-100,-100,0,0,100,0.00,40.00,0,-999,0,0.00
2013-7-30,77,70,63,-100,-100,-100,0,0,100,0.00,40.00,0,-999,0,0.00
2013-7-31,75,69,61,-100,-100,-100,0,0,100,0.00,40.00,0,-999,0,0.00
2013-8-1,84,71,59,-100,-100,-100,0,0,100,0.00,40.00,0,-999,0,0.00
2013-8-2,75,69,61,-100,-100,-100,0,0,100,0.00,40.00,0,-999,0,0.00
2013-8-3,75,65,57,-100,-100,-100,0,0,100,0.00,40.00,0,-999,0,0.00
2013-8-4,77,66,55,-100,-100,-100,0,0,100,0.00,40.00,0,-999,0,0.00
2013-8-5,75,67,59,-100,-100,-100,0,0,100,0.00,40.00,0,-999,0,0.00
2013-8-6,84,70,61,-100,-100,-100,0,0,100,0.00,40.00,0,-999,0,0.00
2013-8-7,73,66,59,-100,-100,-100,0,0,100,0.00,40.00,0,-999,0,0.00
2013-8-8,77,68,55,-100,-100,-100,0,0,100,0.00,40.00,0,-999,0,0.00
2013-8-9,73,68,59,-100,-100,-100,0,0,100,0.00,40.00,0,-999,0,0.00
2013-8-10,77,63,54,-100,-100,-100,0,0,100,0.00,40.00,0,-999,0,0.00
2013-8-11,68,65,63,-100,-100,-100,0,0,100,0.00,40.00,0,-999,0,0.00
2013-8-12,73,66,59,-100,-100,-100,0,0,100,0.00,40.00,0,-999,0,0.00
2013-8-13,70,65,57,-100,-100,-100,0,0,100,0.00,40.00,0,-999,0,0.00
2013-8-14,73,65,52,-100,-100,-100,0,0,100,0.00,40.00,0,-999,0,0.00
2013-8-15,75,64,52,-100,-100,-100,0,0,100,0.00,40.00,0,-999,0,0.00
2013-8-16,81,68,52,-100,-100,-100,0,0,100,0.00,40.00,0,-999,0,0.00
2013-8-17,79,68,55,-100,-100,-100,0,0,100,0.00,40.00,0,-999,0,0.00
2013-8-18,81,67,57,-100,-100,-100,0,0,100,0.00,40.00,0,-999,0,0.00
2013-8-19,82,70,59,-100,-100,-100,0,0,100,0.00,40.00,0,-999,0,0.00
2013-8-20,86,76,66,-100,-100,-100,0,0,100,0.00,40.00,0,-999,0,0.00
2013-8-21,86,77,68,-100,-100,-100,0,0,100,0.00,40.00,0,-999,0,0.00
2013-8-22,81,74,66,-100,-100,-100,0,0,100,0.00,40.00,0,-999,0,0.00
2013-8-23,81,70,63,-100,-100,-100,0,0,100,0.00,40.00,0,-999,0,0.00
2013-8-24,84,74,66,-100,-100,-100,0,0,100,0.00,40.00,0,-999,0,0.00
2013-8-25,90,79,70,-100,-100,-100,0,0,100,0.00,40.00,0,-999,0,0.00
2013-8-26,91,81,72,-100,-100,-100,0,0,100,0.00,40.00,0,-999,0,0.00
2013-8-27,88,80,75,-100,-100,-100,0,0,100,0.00,40.00,0,-999,0,0.00
2013-8-28,88,84,77,-100,-100,-100,0,0,100,0.00,40.00,0,-999,0,0.00
2013-8-29,90,81,73,-100,-100,-100,0,0,100,0.00,40.00,0,-999,0,0.00
2013-8-30,84,78,70,-100,-100,-100,0,0,100,0.00,40.00,0,-999,0,0.00
2013-8-31,84,70,63,-100,-100,-100,0,0,100,0.00,40.00,0,-999,0,0.00
2013-9-1,73,71,68,-100,-100,-100,0,0,100,0.00,40.00,0,-999,0,0.00
2013-9-2,66,60,52,-100,-100,-100,0,0,100,0.00,40.00,0,-999,0,0.00
2013-9-3,77,62,46,-100,-100,-100,0,0,100,0.00,40.00,0,-999,0,0.00
2013-9-4,84,73,57,-100,-100,-100,0,0,100,0.00,40.00,0,-999,0,0.00
2013-9-5,84,72,64,-100,-100,-100,0,0,100,0.00,40.00,0,-999,0,0.00
2013-9-6,86,74,64,-100,-100,-100,0,0,100,0.00,40.00,0,-999,0,0.00
2013-9-7,91,77,66,-100,-100,-100,0,0,100,0.00,40.00,0,-999,0,0.00
2013-9-8,77,71,68,-100,-100,-100,0,0,100,0.00,40.00,0,-999,0,0.00
2013-9-9,95,75,66,-100,-100,-100,0,0,100,0.00,40.00,0,-999,0,0.00
2013-9-10,86,75,64,-100,-100,-100,0,0,100,0.00,40.00,0,-999,0,0.00
2013-9-11,79,72,64,-100,-100,-100,0,0,100,0.00,40.00,0,-999,0,0.00
2013-9-12,70,64,55,-100,-100,-100,0,0,100,0.00,40.00,0,-999,0,0.00
2013-9-13,70,58,46,-100,-100,-100,0,0,100,0.00,40.00,0,-999,0,0.00
2013-9-14,73,57,45,-100,-100,-100,0,0,100,0.00,40.00,0,-999,0,0.00
2013-9-15,61,57,54,-100,-100,-100,0,0,100,0.00,40.00,0,-999,0,0.00
2013-9-16,66,52,45,-100,-100,-100,0,0,100,0.00,40.00,0,-999,0,0.00
2013-9-17,59,53,46,-100,-100,-100,0,0,100,0.00,40.00,0,-999,0,0.00
2013-9-18,63,62,61,-100,-100,-100,0,0,100,0.00,40.00,0,-999,0,0.00
2013-9-19,81,73,66,-100,-100,-100,0,0,100,0.00,40.00,0,-999,0,0.00
2013-9-20,63,56,52,-100,-100,-100,0,0,100,0.00,40.00,0,-999,0,0.00
2013-9-21,66,55,43,-100,-100,-100,0,0,100,0.00,40.00,0,-999,0,0.00
2013-9-22,73,59,45,-100,-100,-100,0,0,100,0.00,40.00,0,-999,0,0.00
2013-9-23,72,58,48,-100,-100,-100,0,0,100,0.00,40.00,0,-999,0,0.00
2013-9-24,72,59,46,-100,-100,-100,0,0,100,0.00,40.00,0,-999,0,0.00
2013-9-25,72,59,46,-100,-100,-100,0,0,100,0.00,40.00,0,-999,0,0.00
2013-9-26,81,66,52,-100,-100,-100,0,0,100,0.00,40.00,0,-999,0,0.00
2013-9-27,82,73,63,-100,-100,-100,0,0,100,0.00,40.00,0,-999,0,0.00
2013-9-28,64,59,52,-100,-100,-100,0,0,100,0.00,40.00,0,-999,0,0.00
2013-9-29,73,58,41,-100,-100,-100,0,0,100,0.00,40.00,0,-999,0,0.00
2013-9-30,75,63,48,-100,-100,-100,0,0,100,0.00,40.00,0,-999,0,0.00
2013-10-1,64,61,55,-100,-100,-100,0,0,100,0.00,40.00,0,-999,0,0.00
2013-10-2,77,64,48,-100,-100,-100,0,0,100,0.00,40.00,0,-999,0,0.00
2013-10-3,73,62,59,-100,-100,-100,0,0,100,0.00,40.00,0,-999,0,0.00
2013-10-4,72,63,57,-100,-100,-100,0,0,100,0.00,40.00,0,-999,0,0.00
2013-10-5,64,55,48,-100,-100,-100,0,0,100,0.00,40.00,0,-999,0,0.00
2013-10-6,50,47,43,-100,-100,-100,0,0,100,0.00,40.00,0,-999,0,0.00
2013-10-7,68,50,43,-100,-100,-100,0,0,100,0.00,40.00,0,-999,0,0.00
2013-10-8,73,60,45,-100,-100,-100,0,0,100,0.00,40.00,0,-999,0,0.00
2013-10-9,72,59,46,-100,-100,-100,0,0,100,0.00,40.00,0,-999,0,0.00
2013-10-10,73,58,46,-100,-100,-100,0,0,100,0.00,40.00,0,-999,0,0.00
2013-10-11,72,62,54,-100,-100,-100,0,0,100,0.00,40.00,0,-999,0,0.00
2013-10-12,64,54,45,-100,-100,-100,0,0,100,0.00,40.00,0,-999,0,0.00
2013-10-13,59,48,37,-100,-100,-100,0,0,100,0.00,40.00,0,-999,0,0.00
2013-10-14,59,49,39,-100,-100,-100,0,0,100,0.00,40.00,0,-999,0,0.00
2013-10-15,52,48,45,-100,-100,-100,0,0,100,0.00,40.00,0,-999,0,0.00
2013-10-16,45,42,34,-100,-100,-100,0,0,100,0.00,40.00,0,-999,0,0.00
2013-10-17,57,42,32,-100,-100,-100,0,0,100,0.00,40.00,0,-999,0,0.00
2013-10-18,48,40,32,-100,-100,-100,0,0,100,0.00,40.00,0,-999,0,0.00
2013-10-19,46,36,30,-100,-100,-100,0,0,100,0.00,40.00,0,-999,0,0.00
2013-10-20,54,38,28,-100,-100,-100,0,0,100,0.00,40.00,0,-999,0,0.00
2013-10-21,39,32,28,-100,-100,-100,0,0,100,0.00,40.00,0,-999,0,0.00
2013-10-22,37,34,30,-100,-100,-100,0,0,100,0.00,40.00,0,-999,0,0.00
2013-10-23,37,33,28,-100,-100,-100,0,0,100,0.00,40.00,0,-999,0,0.00
2013-10-24,43,34,28,-100,-100,-100,0,0,100,0.00,40.00,0,-999,0,0.00
2013-10-25,54,42,25,-100,-100,-100,0,0,100,0.00,40.00,0,-999,0,0.00
2013-10-26,45,40,34,-100,-100,-100,0,0,100,0.00,40.00,0,-999,0,0.00
2013-10-27,59,43,27,-100,-100,-100,0,0,100,0.00,40.00,0,-999,0,0.00
2013-10-28,43,37,32,-100,-100,-100,0,0,100,0.00,40.00,0,-999,0,0.00
2013-10-29,54,43,36,-100,-100,-100,0,0,100,0.00,40.00,0,-999,0,0.00
2013-10-30,64,53,48,-100,-100,-100,0,0,100,0.00,40.00,0,-999,0,0.00
2013-10-31,57,42,36,-100,-100,-100,0,0,100,0.00,40.00,0,-999,0,0.00
2013-11-1,50,43,37,-100,-100,-100,0,0,100,0.00,40.00,0,-999,0,0.00
2013-11-2,46,39,34,-100,-100,-100,0,0,100,0.00,40.00,0,-999,0,0.00
2013-11-3,52,41,30,-100,-100,-100,0,0,100,0.00,40.00,0,-999,0,0.00
2013-11-4,48,43,36,-100,-100,-100,0,0,100,0.00,40.00,0,-999,0,0.00
2013-11-5,41,35,27,-100,-100,-100,0,0,100,0.00,40.00,0,-999,0,0.00
2013-11-6,37,32,28,-100,-100,-100,0,0,100,0.00,40.00,0,-999,0,0.00
2013-11-7,37,32,27,-100,-100,-100,0,0,100,0.00,40.00,0,-999,0,0.00
2013-11-8,45,35,25,-100,-100,-100,0,0,100,0.00,40.00,0,-999,0,0.00
2013-11-9,45,41,32,-100,-100,-100,0,0,100,0.00,40.00,0,-999,0,0.00
2013-11-10,41,35,30,-100,-100,-100,0,0,100,0.00,40.00,0,-999,0,0.00
2013-11-11,37,27,16,-100,-100,-100,0,0,100,0.00,40.00,0,-999,0,0.00
2013-11-12,23,15,9,-100,-100,-100,0,0,100,0.00,40.00,0,-999,0,0.00
2013-11-13,46,30,18,-100,-100,-100,0,0,100,0.00,40.00,0,-999,0,0.00
2013-11-14,46,36,30,-100,-100,-100,0,0,100,0.00,40.00,0,-999,0,0.00
2013-11-15,54,41,28,-100,-100,-100,0,0,100,0.00,40.00,0,-999,0,0.00
2013-11-16,57,44,36,-100,-100,-100,0,0,100,0.00,40.00,0,-999,0,0.00
2013-11-17,41,37,34,-100,-100,-100,0,0,100,0.00,40.00,0,-999,0,0.00
2013-11-18,36,30,25,-100,-100,-100,0,0,100,0.00,40.00,0,-999,0,0.00
2013-11-19,41,32,23,-100,-100,-100,0,0,100,0.00,40.00,0,-999,0,0.00
2013-11-20,37,36,34,-100,-100,-100,0,0,100,0.00,40.00,0,-999,0,0.00
2013-11-21,37,27,23,-100,-100,-100,0,0,100,0.00,40.00,0,-999,0,0.00
2013-11-22,27,20,14,-100,-100,-100,0,0,100,0.00,40.00,0,-999,0,0.00
2013-11-23,19,10,5,-100,-100,-100,0,0,100,0.00,40.00,0,-999,0,0.00
2013-11-24,23,15,5,-100,-100,-100,0,0,100,0.00,40.00,0,-999,0,0.00
2013-11-25,37,29,21,-100,-100,-100,0,0,100,0.00,40.00,0,-999,0,0.00
2013-11-26,28,21,14,-100,-100,-100,0,0,100,0.00,40.00,0,-999,0,0.00
2013-11-27,25,16,7,-100,-100,-100,0,0,100,0.00,40.00,0,-999,0,0.00
2013-11-28,28,18,12,-100,-100,-100,0,0,100,0.00,40.00,0,-999,0,0.00
2013-11-29,30,23,10,-100,-100,-100,0,0,100,0.00,40.00,0,-999,0,0.00
2013-11-30,43,32,23,-100,-100,-100,0,0,100,0.00,40.00,0,-999,0,0.00
2013-12-1,37,29,21,-100,-100,-100,0,0,100,0.00,40.00,0,-999,0,0.00
2013-12-2,36,32,25,-100,-100,-100,0,0,100,0.00,40.00,0,-999,0,0.00
2013-12-3,34,34,32,-100,-100,-100,0,0,100,0.00,40.00,0,-999,0,0.00
2013-12-4,36,32,30,-100,-100,-100,0,0,100,0.00,40.00,0,-999,0,0.00
2013-12-5,12,7,3,-100,-100,-100,0,0,100,0.00,40.00,0,-999,0,0.00
2013-12-6,7,0,-4,-100,-100,-100,0,0,100,0.00,40.00,0,-999,0,0.00
2013-12-7,9,0,-8,-100,-100,-100,0,0,100,0.00,40.00,0,-999,0,0.00
2013-12-8,14,11,7,-100,-100,-100,0,0,100,0.00,40.00,0,-999,0,0.00
2013-12-9,12,-1,-6,-100,-100,-100,0,0,100,0.00,40.00,0,-999,0,0.00
2013-12-10,14,10,3,-100,-100,-100,0,0,100,0.00,40.00,0,-999,0,0.00
2013-12-11,9,-3,-8,-100,-100,-100,0,0,100,0.00,40.00,0,-999,0,0.00
2013-12-12,23,10,-2,-100,-100,-100,0,0,100,0.00,40.00,0,-999,0,0.00
2013-12-13,19,14,5,-100,-100,-100,0,0,100,0.00,40.00,0,-999,0,0.00
2013-12-14,14,13,9,-100,-100,-100,0,0,100,0.00,40.00,0,-999,0,0.00
2013-12-15,7,4,1,-100,-100,-100,0,0,100,0.00,40.00,0,-999,0,0.00
2013-12-16,18,13,5,-100,-100,-100,0,0,100,0.00,40.00,0,-999,0,0.00
2013-12-17,28,23,16,-100,-100,-100,0,0,100,0.00,40.00,0,-999,0,0.00
2013-12-18,36,26,12,-100,-100,-100,0,0,100,0.00,40.00,0,-999,0,0.00
2013-12-19,28,21,19,-100,-100,-100,0,0,100,0.00,40.00,0,-999,0,0.00
2013-12-20,19,18,18,-100,-100,-100,0,0,100,0.00,40.00,0,-999,0,0.00
2013-12-21,21,19,16,-100,-100,-100,0,0,100,0.00,40.00,0,-999,0,0.00
2013-12-22,21,12,-2,-100,-100,-100,0,0,100,0.00,40.00,0,-999,0,0.00
2013-12-23,-2,-6,-11,-100,-100,-100,0,0,100,0.00,40.00,0,-999,0,0.00
2013-12-24,7,0,-11,-100,-100,-100,0,0,100,0.00,40.00,0,-999,0,0.00
2013-12-25,23,16,9,-100,-100,-100,0,0,100,0.00,40.00,0,-999,0,0.00
2013-12-26,32,25,18,-100,-100,-100,0,0,100,0.00,40.00,0,-999,0,0.00
2013-12-27,37,30,16,-100,-100,-100,0,0,100,0.00,40.00,0,-999,0,0.00
2013-12-28,41,34,16,-100,-100,-100,0,0,100,0.00,40.00,0,-999,0,0.00
2013-12-29,16,1,-9,-100,-100,-100,0,0,100,0.00,40.00,0,-999,0,0.00
2013-12-30,3,-3,-9,-100,-100,-100,0,0,100,0.00,40.00,0,-999,0,0.00
2013-12-31,1,-2,-8,-100,-100,-100,0,0,100,0.00,40.00,0,-999,0,0.00
2014-1-1,1,-3,-8,-100,-100,-100,0,0,100,0.00,40.00,0,-999,0,0.00
2014-1-2,1,-7,-15,-100,-100,-100,0,0,100,0.00,40.00,0,-999,0,0.00